Theta_e
330 328 326 327 327 326 324 322 320 318 316 315 314 313 313 313 312 312 311 310 310 310 310 309 309 308 307 306 305 304 302 300 299 299 299 299 299 299 299 298 298 298
328 327 327 327 327 324 322 320 318 317 315 314 313 313 312 312 311 311 310 310 309 309 309 308 308 307 306 305 304 302 300 299 299 299 299 299 299 299 298 298 298 297
327 327 327 328 326 322 320 318 317 316 314 313 313 312 311 311 310 309 309 309 309 309 308 307 307 306 305 304 302 300 299 299 299 299 299 299 299 298 298 298 298 298
327 327 327 326 324 321 318 317 316 315 313 312 312 311 310 309 309 309 308 308 308 308 307 307 306 305 304 302 300 299 299 299 299 299 299 298 298 298 298 298 298 298
327 327 325 323 321 319 317 316 315 314 313 312 312 310 309 308 308 308 308 308 308 307 306 306 305 304 302 300 299 299 299 299 299 298 298 298 298 298 298 298 298 298
326 324 323 321 319 318 317 316 315 314 313 312 311 310 309 308 308 307 307 307 307 306 305 304 303 302 300 299 299 299 299 299 298 298 298 298 298 298 298 297 297 297
323 322 320 319 318 317 316 315 314 314 313 311 311 310 309 308 307 307 306 306 305 305 304 303 301 300 299 298 299 299 298 298 298 298 298 297 297 297 297 296 296 296
321 320 318 318 317 316 316 314 314 313 312 311 310 309 309 308 307 306 306 305 305 304 302 301 300 299 298 298 299 298 298 298 298 297 297 297 296 296 296 296 295 295
319 318 318 317 316 315 314 313 313 312 311 310 309 309 308 308 307 306 305 304 304 302 301 300 299 298 298 298 298 298 298 297 297 297 296 296 296 296 295 295 295 295
318 317 317 316 315 314 313 312 311 310 310 309 308 308 308 307 306 305 305 304 302 301 299 299 299 298 298 298 298 298 297 297 296 296 296 296 295 295 295 295 295 295
317 316 316 315 314 313 311 311 310 309 308 307 307 307 307 306 305 305 304 303 301 299 298 299 298 298 298 298 298 298 297 297 296 296 296 296 295 295 295 295 295 295
316 315 315 314 313 311 310 309 308 307 306 306 306 307 306 305 305 304 303 302 300 298 298 298 298 298 298 298 297 297 297 296 296 296 295 295 295 295 295 295 295 295
315 314 314 313 311 310 309 308 307 306 305 305 305 306 306 305 304 303 302 301 298 297 298 298 298 298 298 297 297 297 296 296 296 296 295 295 295 295 295 295 295 295
314 313 312 311 310 308 307 306 306 305 304 303 304 305 305 304 304 303 301 299 297 297 298 298 298 298 297 297 297 296 296 296 295 295 295 295 296 295 295 295 295 295
312 311 310 309 308 306 306 305 304 304 303 302 303 305 305 304 303 302 299 298 297 298 298 298 298 298 297 297 297 297 296 296 295 295 295 295 295 295 295 295 295 295
310 309 308 307 306 305 305 304 304 303 301 302 304 305 304 303 302 300 298 298 298 298 298 298 298 298 297 297 297 297 296 296 295 295 295 295 295 295 295 295 295 295
308 307 306 306 305 305 304 303 302 301 300 302 304 304 303 303 302 299 298 298 299 298 298 298 298 297 297 297 297 297 296 296 295 295 295 295 295 295 295 295 295 294
307 306 305 304 304 303 302 301 299 298 299 302 304 303 303 303 302 299 298 298 299 299 299 298 298 298 297 297 297 297 296 295 295 295 295 295 295 295 295 295 294 294
306 305 304 303 303 302 300 298 297 298 300 303 303 303 302 302 302 300 298 298 299 299 299 299 299 298 298 297 296 296 295 295 295 295 295 295 295 295 295 295 294 294
305 304 303 302 302 301 299 297 297 299 301 302 303 303 302 302 302 300 298 299 299 300 300 300 299 299 298 297 296 295 295 295 295 295 295 295 295 295 295 295 294 293
304 303 303 302 301 301 299 297 298 299 301 302 302 302 302 302 301 301 300 300 300 300 300 300 300 300 299 298 297 295 295 295 295 296 296 296 295 295 295 294 294 293
303 303 302 302 301 300 298 297 298 299 300 301 301 301 302 302 301 301 301 300 300 300 300 300 301 300 300 299 297 296 295 295 295 296 296 296 295 295 294 294 294 293
303 303 302 301 301 300 298 297 298 299 299 300 301 301 301 301 301 301 301 300 300 300 300 301 301 301 300 300 298 297 296 295 295 295 296 295 295 295 294 294 294 293
304 304 303 302 302 301 298 296 297 298 299 300 300 300 301 301 301 301 301 300 300 301 301 301 301 301 300 300 299 298 297 296 295 295 295 295 295 294 294 294 294 293
304 304 304 303 302 300 297 296 295 296 299 300 300 300 300 300 300 301 300 301 301 301 301 301 301 301 301 300 299 299 298 297 295 295 295 295 295 294 294 293 293 293
304 304 303 303 302 299 297 296 295 296 298 299 299 299 300 300 300 300 300 301 301 301 301 300 300 301 301 300 300 299 298 297 296 295 295 295 295 294 294 293 293 293
Wind_Speed
26 27 26 24 22 19 18 16 15 14 14 13 13 15 16 17 16 15 16 17 17 17 17 17 17 16 16 15 14 16 17 19 20 19 19 21 21 21 21 21 21 23
26 27 25 23 21 20 18 17 15 14 14 14 14 17 17 17 16 16 17 17 17 18 17 16 16 15 15 15 15 16 18 20 20 20 20 22 23 24 24 25 26 27
26 25 23 22 22 21 19 18 16 15 15 15 16 17 17 17 17 17 17 17 18 18 17 17 16 15 14 14 15 17 19 21 22 22 24 26 26 27 28 28 28 27
24 23 23 24 23 22 21 20 18 17 16 17 18 17 17 17 18 18 18 18 18 19 18 17 16 15 14 14 15 18 20 23 24 26 28 29 29 29 29 28 27 26
24 24 25 25 24 23 22 21 20 19 18 18 19 18 18 18 18 19 19 19 20 19 18 17 15 15 14 15 17 20 23 26 27 28 30 31 30 29 29 28 27 26
25 25 26 25 24 24 22 21 20 19 18 18 19 18 18 18 18 19 20 20 20 19 17 16 15 16 15 16 20 23 26 28 29 30 32 31 30 29 28 27 26 25
26 26 26 26 25 23 22 21 20 19 18 18 19 18 18 18 19 20 20 20 19 18 16 16 16 17 18 19 23 26 28 29 30 31 31 30 29 28 26 25 24 23
27 27 26 25 24 23 22 22 21 20 19 19 19 19 18 19 20 21 20 19 18 17 17 17 18 19 20 22 26 28 29 30 30 30 30 29 28 26 24 23 22 22
27 27 26 25 24 23 22 22 22 21 20 20 20 20 20 20 21 21 20 18 18 17 17 19 20 21 22 24 27 29 30 30 29 28 28 27 26 24 23 22 21 21
26 27 26 25 24 24 23 24 23 22 22 20 20 21 21 22 21 21 20 19 18 18 19 20 21 22 24 26 27 28 29 28 27 27 26 25 24 23 21 21 21 20
26 26 25 25 25 25 25 25 24 24 23 21 21 22 22 23 23 21 20 19 19 19 21 22 22 23 25 27 27 27 27 27 26 25 24 23 22 21 21 20 20 20
26 26 25 25 25 26 26 26 25 25 23 21 21 23 24 25 24 22 20 19 20 20 22 23 23 23 25 26 26 26 25 25 25 24 23 22 21 21 20 20 20 19
26 25 25 25 25 27 27 27 25 24 22 21 22 23 25 26 24 23 20 20 21 22 23 23 23 23 24 25 24 24 24 24 23 23 22 21 20 20 19 19 18 18
26 25 25 26 26 27 27 26 25 23 21 21 23 24 26 26 25 24 22 21 22 23 23 23 22 22 22 23 23 22 22 22 22 21 20 20 19 18 18 17 17 17
26 26 26 26 27 27 27 25 23 22 21 22 24 26 27 27 26 24 24 25 25 24 24 23 22 21 20 21 21 21 21 20 20 19 18 18 17 16 16 15 15 15
27 27 27 27 27 26 25 24 22 21 21 23 26 28 28 28 27 26 27 28 28 26 25 23 22 21 20 19 19 19 19 19 19 17 16 15 15 15 14 14 14 14
28 28 28 27 27 26 24 22 21 20 22 25 28 29 29 29 28 28 29 28 28 26 25 24 23 21 20 18 17 17 17 17 17 16 15 14 14 14 13 13 12 12
29 29 29 28 26 25 22 21 20 21 24 27 29 30 31 30 29 29 29 27 26 25 24 23 22 21 19 18 16 16 15 15 16 15 14 13 12 12 12 12 11 12
30 30 29 28 26 24 22 21 21 23 25 27 29 30 31 31 29 30 29 26 24 23 22 21 21 19 18 17 15 15 15 15 15 14 13 12 11 11 11 11 11 11
30 30 30 29 27 25 23 22 22 24 26 27 29 30 31 31 30 30 29 26 23 22 21 20 19 18 17 15 15 15 15 15 14 13 12 11 10 10 10 10 11 11
31 31 31 29 27 25 24 23 24 25 27 27 28 29 30 30 30 29 28 26 24 22 21 19 18 18 16 14 13 14 14 14 13 12 11 10 9 8 9 9 9 11
32 32 31 30 28 26 24 24 25 26 27 27 27 28 29 29 28 28 27 25 24 22 20 19 18 17 17 15 12 12 13 12 12 11 9 8 8 7 7 8 8 9
33 33 32 30 29 26 25 25 26 26 27 27 27 28 28 28 27 26 25 24 23 21 20 19 18 17 17 15 13 11 10 10 10 9 8 7 7 6 6 7 7 8
34 34 33 32 29 27 27 26 25 25 26 27 27 28 28 27 26 25 24 23 21 20 18 18 17 18 18 16 13 10 8 8 9 8 7 6 6 6 6 6 6 7
37 37 36 34 30 27 27 25 23 24 26 26 26 27 27 26 25 25 23 21 20 18 17 17 17 18 19 17 13 11 8 7 7 7 7 5 5 5 6 5 5 5
38 38 37 35 32 29 28 24 22 24 26 26 26 26 26 25 24 24 22 21 19 18 17 17 17 18 19 17 13 11 9 7 6 7 7 5 5 5 5 5 4 4
Wind_Direction
174 172 168 163 163 166 165 158 151 144 139 136 132 130 130 132 134 135 131 130 129 127 127 127 124 120 114 106 100 94 93 95 96 96 93 89 87 84 81 79 78 78
175 172 167 163 164 164 161 155 148 143 137 135 135 134 135 138 138 137 134 132 130 128 128 127 123 118 112 107 101 98 100 101 99 95 90 86 85 84 84 85 83 82
175 171 167 167 167 162 155 150 145 141 136 136 137 138 139 140 139 137 137 135 132 130 130 127 123 118 114 110 105 104 104 101 97 94 91 89 89 90 90 88 85 82
172 170 169 169 166 158 154 149 144 141 139 139 141 142 141 140 139 137 136 136 134 133 132 128 124 121 117 113 109 107 103 100 98 97 95 94 93 93 90 87 84 81
169 170 168 165 160 156 154 149 145 144 143 143 144 145 144 142 141 138 137 137 136 134 132 128 125 123 120 116 111 108 105 102 101 100 98 96 93 91 88 85 83 79
166 166 163 160 157 156 153 149 148 148 147 148 148 148 150 147 143 141 139 138 137 135 132 129 128 125 121 118 113 109 107 105 104 101 98 96 93 89 86 82 79 76
160 159 157 157 156 155 152 149 151 151 150 152 151 152 156 152 147 144 142 140 138 135 133 131 130 127 123 120 115 111 110 108 106 102 99 96 92 88 83 79 75 72
156 155 155 156 155 154 152 152 153 154 155 155 153 155 158 156 151 147 145 143 139 135 134 133 131 128 125 121 117 114 112 110 107 103 99 95 91 86 81 77 73 69
154 154 157 157 155 154 154 154 156 157 159 159 156 157 158 157 154 150 147 144 139 135 135 135 132 129 126 123 120 117 115 111 107 102 99 95 90 86 81 76 72 67
154 155 157 157 155 155 156 157 158 159 161 161 159 159 159 157 155 152 150 145 139 136 136 136 134 131 128 125 122 119 116 112 107 102 97 94 89 84 79 74 69 65
154 155 157 157 156 157 158 160 161 161 162 163 162 161 159 157 155 153 151 144 139 138 138 138 136 133 130 126 123 121 116 111 107 102 97 92 87 82 77 72 67 63
156 158 159 159 159 159 160 162 162 162 163 164 164 162 159 157 155 153 150 144 140 140 140 140 139 136 132 128 125 121 116 111 106 102 96 91 85 80 75 70 66 62
159 161 162 162 162 162 162 163 163 164 164 164 165 164 160 158 156 152 148 144 142 142 142 143 141 138 134 130 126 120 116 112 107 102 97 90 85 80 75 71 65 61
162 164 164 163 163 162 163 163 163 165 165 165 166 165 162 159 156 151 146 144 143 142 143 144 143 140 137 132 127 121 117 114 108 104 98 91 87 81 75 72 65 59
163 163 163 163 162 162 163 163 163 166 166 166 166 164 162 159 156 152 147 143 140 140 141 143 142 140 137 133 128 124 120 115 110 105 100 93 88 82 75 70 64 57
162 162 162 162 162 163 163 164 165 168 168 167 166 165 163 160 156 153 148 143 138 137 138 138 137 136 135 133 129 125 122 118 113 106 101 96 88 81 75 68 62 56
161 161 161 162 163 164 164 165 168 169 169 168 166 165 163 161 158 155 151 145 140 137 136 133 132 132 132 132 129 127 124 120 116 108 101 95 86 80 75 68 62 55
161 161 161 162 164 164 164 166 169 170 170 168 167 166 164 162 161 159 155 150 146 143 140 136 133 131 129 129 128 128 126 122 118 111 102 93 85 80 74 69 63 54
162 161 161 162 163 163 164 166 169 170 170 170 168 167 165 164 163 163 161 157 154 152 149 144 141 136 132 128 126 126 127 125 119 111 102 93 86 82 75 68 61 51
162 162 162 162 163 164 164 166 169 170 170 170 169 168 167 166 165 166 165 164 161 159 156 155 151 147 141 132 126 127 129 127 121 111 102 93 86 82 76 67 57 48
163 162 162 162 164 165 165 167 170 171 170 171 170 169 169 168 167 168 168 168 168 165 162 161 161 159 154 143 131 129 132 130 122 112 102 91 84 82 76 68 57 45
163 162 162 164 164 164 166 168 171 171 171 171 171 170 170 169 169 170 170 170 171 170 167 166 166 166 164 158 144 135 135 135 126 116 105 92 84 82 77 71 55 42
164 164 164 165 165 166 169 171 172 173 174 173 172 170 170 170 170 171 172 173 172 173 173 170 168 168 168 167 160 147 141 140 134 125 112 96 88 83 78 72 56 39
169 169 169 168 169 171 171 171 173 177 177 176 175 173 171 171 171 171 172 174 175 176 177 174 172 171 169 170 170 163 154 148 144 137 121 103 96 92 81 72 58 38
173 174 173 171 171 172 171 170 174 179 180 180 179 177 172 171 172 172 171 173 176 177 176 174 173 172 172 173 175 176 172 163 155 149 136 118 111 103 88 77 64 40
174 174 173 172 172 173 171 170 173 178 182 183 182 179 175 172 172 173 171 170 172 173 173 172 172 172 173 177 181 183 185 182 171 161 152 138 126 114 94 82 70 42